Tracking 29892 objects as of 21-Nov-2024
HD Live streaming from Space Station
objects crossing your sky now

DELTA 1 R/B

Track DELTA 1 R/B now!
10-day predictions


NORAD ID: 3670
Int'l Code: 1969-009B
Perigee: 581.4 km
Apogee: 3,298.9 km
Inclination: 88.4 °
Period: 125.7 minutes
Semi major axis: 8311 km
RCS: 0.5955 m2 (medium)
Launch date: January 30, 1969
Source: United States (US)
Launch site: AIR FORCE WESTERN TEST RANGE (AFWTR)

Note: This is a ROCKET BODY
Your satellite tracking list
Your tracking list is empty




NASA's NSSDC Master Catalog

Two Line Element Set (TLE):
1 03670U 69009B   24325.56318840  .00000646  00000-0  42978-3 0  9990
2 03670  88.4474 170.5233 1634856  36.2179 333.9127 11.45813701313472
Source of the keplerian elements: AFSPC